EW1015 Weather Reports


Display with metric or nautical units.
time (UTC)temp
F
wind
direction
speed
MPH
gust
MPH
rain 1hr
in
rain 24hr
in
rain mn
in
humidity
%
barometer
mb
20260902083052 68 144 0.0 2.0 0.00 0.05 0.00 100 1016.5
20260902081545 69 88 0.0 1.0 0.00 0.05 0.00 100 1016.5
20260902080042 69 97 0.0 3.0 0.00 0.05 0.00 100 1016.3
20260902074541 71 190 0.0 2.0 0.00 0.05 0.00 100 1016.6
20260902073033 70 207 1.0 3.0 0.00 0.05 0.00 100 1016.6
20260902071528 69 84 0.0 0.0 0.00 0.05 0.00 100 1016.6
20260902070023 69 76 0.0 1.0 0.00 0.05 0.00 100 1016.4
20260902064519 69 82 0.0 2.0 0.00 0.05 0.00 100 1016.3
20260902063027 68 80 0.0 1.0 0.00 0.05 0.00 100 1016.7
20260902061510 68 78 0.0 1.0 0.00 0.05 0.00 100 1016.8
20260902060005 68 66 0.0 2.0 0.00 0.05 0.00 100 1016.9
20260902054501 68 80 0.0 1.0 0.00 0.08 0.00 100 1016.9
20260902053057 68 80 1.0 2.0 0.00 0.08 0.00 100 1017.0
20260902051554 68 80 0.0 1.0 0.00 0.08 0.00 100 1017.0
20260902050100 68 80 1.0 2.0 0.00 0.08 0.00 100 1016.8
20260902044543 67 78 0.0 2.0 0.00 0.08 0.00 100 1016.7
20260902043045 69 78 0.0 2.0 0.00 0.08 0.00 100 1016.7
20260902041535 70 76 0.0 1.0 0.00 0.08 0.00 100 1016.8
20260902040030 70 76 0.0 1.0 0.00 0.08 0.00 100 1016.6
20260902034530 70 74 0.0 0.0 0.00 0.08 0.08 100 1016.5
20260902033031 70 74 0.0 2.0 0.00 0.08 0.08 100 1016.5
20260902031529 71 77 0.0 1.0 0.00 0.08 0.08 100 1016.6
20260902030029 71 68 0.0 2.0 0.00 0.08 0.08 100 1016.7
20260902024528 72 77 0.0 1.0 0.00 0.08 0.08 100 1016.6
20260902023028 71 72 0.0 1.0 0.00 0.08 0.08 100 1016.7
20260902021527 71 72 0.0 0.0 0.00 0.08 0.08 100 1016.9
20260902020028 71 72 0.0 1.0 0.00 0.08 0.08 100 1016.8
20260902014526 71 72 0.0 1.0 0.00 0.08 0.08 100 1016.7
20260902013030 72 72 0.0 1.0 0.00 0.08 0.08 100 1016.7
20260902011532 72 72 0.0 0.0 0.00 0.08 0.08 100 1016.5
20260902010025 72 72 0.0 1.0 0.00 0.08 0.08 100 1016.3
20260902004523 73 72 0.0 1.0 0.00 0.08 0.08 100 1016.1
20260902003028 73 72 0.0 0.0 0.00 0.08 0.08 100 1015.7
20260902001523 73 72 0.0 1.0 0.00 0.08 0.08 100 1015.3
20260902000024 74 70 0.0 3.0 0.00 0.08 0.08 100 1015.1
20260901234522 75 53 1.0 4.0 0.00 0.08 0.08 100 1015.2
20260901233022 76 46 1.0 2.0 0.00 0.08 0.08 100 1015.3
20260901231525 77 63 1.0 3.0 0.00 0.08 0.08 100 1015.4
20260901230020 77 55 0.0 2.0 0.00 0.08 0.08 100 1015.5
20260901224532 78 49 2.0 3.0 0.00 0.08 0.08 100 1015.5
20260901223020 79 74 1.0 4.0 0.00 0.08 0.08 100 1015.5
20260901221519 79 69 2.0 4.0 0.00 0.08 0.08 100 1015.3
20260901220018 79 355 0.0 2.0 0.00 0.08 0.08 100 1015.3
20260901214518 79 333 2.0 8.0 0.00 0.09 0.08 100 1015.3
20260901213021 80 51 3.0 5.0 0.00 0.09 0.08 100 1015.0
20260901211510 80 346 2.0 5.0 0.00 0.09 0.08 100 1015.1
20260901210004 79 51 1.0 5.0 0.00 0.09 0.08 100 1015.0
20260901204600 80 355 3.0 6.0 0.00 0.16 0.08 100 1015.3
20260901203056 80 44 3.0 7.0 0.00 0.16 0.08 100 1015.2
20260901201558 81 19 4.0 9.0 0.00 0.16 0.08 100 1015.3
20260901200047 80 29 3.0 6.0 0.00 0.16 0.08 100 1015.1
20260901194541 81 46 2.0 8.0 0.00 0.32 0.08 100 1015.1
20260901193037 80 104 3.0 8.0 0.00 0.32 0.08 100 1015.0
20260901191538 80 44 2.0 6.0 0.00 0.32 0.08 100 1015.2
20260901190028 80 341 3.0 8.0 0.00 0.32 0.08 100 1015.3
20260901184541 80 14 3.0 8.0 0.00 0.45 0.08 100 1015.2
20260901183019 80 288 4.0 9.0 0.00 0.45 0.08 100 1015.0
20260901181521 80 296 5.0 10.0 0.00 0.45 0.08 4 1015.0
20260901180010 80 310 3.0 11.0 0.00 0.45 0.08 100 1015.0
20260901174518 80 298 6.0 9.0 0.00 0.51 0.08 2 1014.9
20260901173002 80 340 5.0 12.0 0.00 0.51 0.08 2 1014.7
20260901171559 79 300 3.0 8.0 0.00 0.51 0.08 100 1014.7
20260901170053 80 276 5.0 12.0 0.00 0.51 0.08 100 1014.7
20260901164547 81 269 4.0 10.0 0.00 0.52 0.08 6 1014.6
20260901163043 80 307 5.0 11.0 0.00 0.52 0.08 100 1014.5
20260901161553 79 266 4.0 12.0 0.00 0.52 0.08 100 1014.6
20260901160058 78 315 3.0 10.0 0.00 0.52 0.08 100 1014.6
20260901154533 78 305 4.0 10.0 0.01 0.52 0.08 100 1014.7
20260901153026 77 308 3.0 10.0 0.01 0.52 0.08 100 1014.8
20260901151524 76 253 3.0 10.0 0.01 0.52 0.08 100 1014.9
20260901150021 75 284 4.0 10.0 0.01 0.52 0.08 100 1015.0
20260901144511 75 335 2.0 6.0 0.00 0.56 0.07 100 1014.9
20260901143007 74 273 1.0 3.0 0.00 0.56 0.07 100 1014.7
20260901141502 73 306 1.0 2.0 0.00 0.56 0.07 100 1014.8
20260901140059 72 324 1.0 2.0 0.00 0.56 0.07 100 1014.7
20260901134555 72 334 0.0 0.0 0.00 0.69 0.07 100 1014.6
20260901133052 71 334 0.0 1.0 0.00 0.69 0.07 100 1014.6
20260901131550 71 341 0.0 2.0 0.00 0.69 0.07 100 1014.8
20260901130040 71 284 0.0 2.0 0.00 0.69 0.07 100 1014.8
20260901124537 71 96 0.0 1.0 0.00 0.69 0.07 100 1014.9
20260901123044 70 96 0.0 1.0 0.00 0.69 0.07 100 1014.8
20260901121528 69 109 0.0 3.0 0.00 0.69 0.07 100 1014.8
20260901120034 69 173 0.0 0.0 0.00 0.69 0.07 100 1014.7
20260901114507 69 130 0.0 1.0 0.00 0.69 0.07 100 1014.8
20260901113002 69 157 0.0 1.0 0.00 0.69 0.07 100 1014.6
20260901111607 69 157 0.0 1.0 0.01 0.69 0.07 100 1014.5
20260901110052 68 69 0.0 2.0 0.01 0.69 0.07 100 1014.3
20260901104550 68 196 0.0 2.0 0.02 0.69 0.07 100 1014.4
20260901103044 68 144 1.0 2.0 0.02 0.69 0.07 100 1014.4
20260901101540 68 236 0.0 2.0 0.01 0.68 0.06 100 1014.5
20260901100036 67 226 0.0 2.0 0.01 0.68 0.06 100 1014.8
20260901094531 67 65 2.0 3.0 0.00 0.67 0.05 100 1014.4
20260901093027 67 139 1.0 3.0 0.00 0.67 0.05 100 1014.7
20260901091522 67 17 0.0 2.0 0.02 0.67 0.05 100 1014.4
20260901090017 67 86 0.0 2.0 0.02 0.67 0.05 100 1014.5
20260901084513 68 310 1.0 3.0 0.02 0.67 0.05 100 1014.6